Location: Black Forest
(43.4794°N, 75.0081°W)
Time: 07:03:01
(UTC-04:00)

ISS - Visible Passes

Search period start: 25 May 2018 00:00
Search period end: 04 June 2018 00:00
Orbit: 402 x 407 km, 51.6° (Epoch: 25 May)

Date Brightness Start Highest point End Pass type
(mag) Time Alt. Az. Time Alt. Az. Time Alt. Az.
25 May -1.4 00:42:30 10° NW 00:45:12 23° NNE 00:46:03 21° NE visible
25 May -1.3 22:12:48 10° WNW 22:15:32 24° NNW 22:18:16 10° NE visible
25 May -1.1 23:50:16 10° NW 23:52:48 20° N 23:55:03 11° NE visible
26 May -1.3 01:26:38 10° NW 01:27:40 18° NW 01:27:40 18° NW visible
26 May -1.7 21:20:12 10° W 21:23:08 30° NNW 21:26:05 10° NE visible
26 May -1.1 22:57:53 10° NW 23:00:20 19° N 23:02:46 10° NE visible
27 May -1.9 00:34:30 10° NW 00:36:53 30° N 00:36:53 30° N visible
27 May -1.1 22:05:22 10° NW 22:07:52 20° N 22:10:21 10° NE visible
27 May -1.7 23:42:20 10° NW 23:45:07 25° NNE 23:46:10 21° NE visible
28 May -0.9 01:18:37 10° WNW 01:18:48 11° WNW 01:18:48 11° WNW visible
28 May -1.3 21:12:45 10° WNW 21:15:24 22° NNW 21:18:03 10° NE visible
28 May -1.3 22:50:05 10° NW 22:52:40 21° N 22:55:15 10° ENE visible
29 May -1.9 00:26:24 10° NW 00:28:08 28° NW 00:28:08 28° NW visible
29 May -1.2 21:57:43 10° NW 22:00:11 19° N 22:02:38 10° NE visible
29 May -2.6 23:34:13 10° NW 23:37:18 37° NNE 23:37:31 36° NNE visible
30 May -1.2 21:05:12 10° NW 21:07:40 19° N 21:10:08 10° NE visible
30 May -1.9 22:42:01 10° NW 22:44:53 27° NNE 22:46:55 15° ENE visible
31 May -1.6 00:18:20 10° WNW 00:19:33 21° WNW 00:19:33 21° WNW visible
31 May -1.6 21:49:46 10° NW 21:52:25 22° NNE 21:55:04 10° ENE visible
31 May -3.4 23:26:03 10° NW 23:28:58 61° NNW 23:28:58 61° NNW visible
01 Jun -2.8 22:33:50 10° NW 22:36:58 42° NNE 22:38:25 25° E visible
02 Jun -1.1 00:10:29 10° WNW 00:11:03 13° W 00:11:03 13° W visible
02 Jun -2.2 21:41:36 10° NW 21:44:33 30° NNE 21:47:29 10° E visible
02 Jun -3.0 23:17:57 10° WNW 23:20:31 43° W 23:20:31 43° W visible
03 Jun -3.9 22:25:36 10° WNW 22:28:53 84° NNE 22:30:00 38° ESE visible
